20ème Hivernales, 6/2/2000: 20km

rang nom club catégorie temps doss
1 LEJOLY FRANK TCDS SEN 1 1:04:58 149
2 MLECZKO OLIVIER   SEN 2 1:05:14 622
3 DENEEF FONS AXA RB VET 1 1:05:15 337
4 DEMOC GUY JOGGING + VET 2 1:05:23 530
5 BREYNAERT GEERT   SEN 3 1:06:54 404
6 RECOUR LAURENT DACM SEN 4 1:07:13 307
7 BOUKRINIAA ABDEL RFCL SEN 5 1:07:32 615
8 NESBITT PAUL   SEN 6 1:07:38 579
9 CULOT DOMINIQUE NAC VET 3 1:07:56 175
10 TIMMERMANS MARC TECHNISPOR SEN 7 1:08:05 1405
11 DELARGE JEAN YVES JOGGING + SEN 8 1:08:20 526
12 MOLEMANS PATRICK DUURSPORT SEN 9 1:08:27 120
13 GONZALEZ XAVIER   VET 4 1:08:38 247
14 JONES NIGEL   SEN 10 1:08:43 654
15 HENNEBERT PATRICE JOGGING + SEN 11 1:09:13 1315
16 BUCHET CEDRIC NAC SEN 12 1:09:22 254
17 VANDERLINDEN DIDIER TRAINING7 SEN 13 1:09:48 545
18 DE KIMPE BERNARD NAC SEN 14 1:09:59 255
19 DENIS PASCAL BIN SEN 15 1:10:25 260
20 SEYNAVE JOHAN MACI VE2 1 1:10:42 826
21 VAN DAM JAN ANTILOB SEN 16 1:10:44 1375
22 LENGRAND ERIK NAC SEN 17 1:10:56 606
23 BROQUET PHILIPPE   SEN 18 1:11:08 1292
24 DOR PATRICK ANTILOB VET 5 1:11:10 607
25 ROELS MARC SP AALST SEN 19 1:11:24 224
26 BOURDON ALAIN JOGGING+ SEN 20 1:11:27 1367
27 CAVYN JEAN PHILIPPE   SEN 21 1:11:40 807
28 RENARD PIERRE   SEN 22 1:12:13 465
29 BOHAN NIALL CACE SEN 23 1:12:27 52
30 LOUIS VINCENT ARCH SEN 24 1:13:13 172
31 PLAS ERIC BTC SEN 25 1:13:29 628
32 VAN HERCK FRANS   VE2 2 1:13:33 379
33 BEEKEN WALTHER JOGGING + VE2 3 1:13:36 1270
34 NELISSEN JAAK   VE2 4 1:13:39 696
35 ELLIOT MARK   SEN 26 1:13:40 653
36 PONCELET STEPHAN TCL SEN 27 1:13:42 839
37 HANSEN GERALD XEROX SEN 28 1:14:07 1457
38 FELIERS EDDY KAPUCIJN SEN 29 1:14:11 1412
39 DEFRAENE PATRICK ANTILOB SEN 30 1:14:15 1377
40 BOLSIUS TOM   SEN 31 1:14:26 732
41 CAMPS DANNY   VET 6 1:14:36 596
42 VAN DEN STEEN ANN KAAG DAM 1 1:14:43 107
43 DIERICKX JOSE NAC VET 7 1:14:45 251
44 LEMMENS JOS PEGASUS T VET 8 1:14:54 210
45 SNEPPE THIERRY JOGGING + SEN 32 1:15:02 580
46 DUFOUR MICHEL JOGGING + VE2 5 1:15:03 374
47 VAN THIENEN JEF GRIM VET 9 1:15:04 195
48 COLLOT ANDRE RCA SPA VET 10 1:15:05 581
49 DELCOURT PIERRE BJB VET 11 1:15:07 613
50 HAUTMAN RONNY VONDELHOF SEN 33 1:15:12 671
51 FRANCOIS MARC CSF TRAIN VET 12 1:15:23 1359
52 DEGERT VINCENT COSTARDS VET 13 1:15:29 1318
53 VANDERHOEVEN YVES JOGGING + SEN 34 1:15:43 12
54 CRESPINET ALAIN RCB SEN 35 1:16:02 1481
55 GENY JOEL RRCB SEN 36 1:16:09 584
56 BOONE JACKIE DUURSPORT VET 14 1:16:12 637
57 DE MEERLEER ANDY SPIRIDON SEN 37 1:16:16 659
58 MOENS ALAIN KURISTO VET 15 1:16:17 1255
59 SELLESLAGH ANDRE RCAS VET 16 1:16:18 402
60 DE RIDDER RENE   SEN 38 1:16:27 164
61 SNOECK JEAN RCB VET 17 1:16:28 424
62 PEETERS STEPHANE   SEN 39 1:16:29 1221
63 DE WITTE GUSTAAF SP AALST VE2 6 1:16:34 1277
64 LEEMANS BRUNO OLYMPIA SEN 40 1:16:36 593
65 VAN OPHALVENS DAVID BIN SEN 41 1:16:40 1392
66 MAMERE JACQUES JOGGING + VET 18 1:16:50 1304
67 EERAERTS MARCEL FURA VET 19 1:16:50 1444
68 SERGYSELS PASCAL JOGGANS SEN 42 1:16:54 1362
69 JAUNARD YVES NAC SEN 43 1:16:56 253
70 DEKENS ROMAIN JOGGANS VE2 7 1:16:59 652
71 ASSELBERGH IRVING LIEKERK SEN 44 1:17:09 277
72 VANDENBOSCH DIDIER   SEN 45 1:17:10 770
73 DE KINDER THIERRY   SEN 46 1:17:12 318
74 BRIOL PAUL BIN SEN 47 1:17:12 775
75 HOORENS CARLOS LDLV SEN 48 1:17:13 283
76 REYNDERS LUC TCDS SEN 49 1:17:14 357
77 OLBRECHTS PASCAL GRIM SEN 50 1:17:25 203
78 PILLITERI PIETO MOHA VET 20 1:17:29 561
79 COPPENS LINDA ROADJOGGER AI1 1 1:17:39 709
80 PONCHELET ALAIN JOGGING + SEN 51 1:17:48 1220
81 DERIDDER R BJB ESP 1 1:17:57 859
82 FAUCON MICHEL RC NAMUR SEN 52 1:18:02 582
83 DE LEENER JEAN MARIE RC NAMUR VET 21 1:18:09 1263
84 TISON ALAIN RTBF SEN 53 1:18:25 24
85 SMITH JULIA FRANCES CEPAL DAM 2 1:18:26 1317
86 HUYSSEUNE LUC SWIFT SEN 54 1:18:29 1330
87 VERMAEREN LUCIEN SP AALST VET 22 1:18:31 215
88 JOLY PATRICK JOGGANS SEN 55 1:18:31 1431
89 FREDERICKS WILLY PEGASUS T VET 23 1:18:35 208
90       1 1:18:38 2000
91 DE KEYSER ALAIN SWIFT VET 24 1:18:44 1327
92 EVRARD MARC RCB SEN 56 1:18:50 499
93 WUYTS FREDERIC LDLV SEN 57 1:18:53 833
94 LEGRAIVE MICHEL AVT SEN 58 1:19:02 1458
95 DE GELAS EMIEL OEH SEN 59 1:19:12 70
96 QUINET JEAN PAUL FLEU VE2 8 1:19:14 1222
97 KINT PHILIPPE GAL SEN 60 1:19:21 665
98 LOUVRIER BERNARD FORTIS VET 25 1:19:23 287
99 DURAY OLIVIER RCB SEN 61 1:19:26 445
100 LUTKEHUS RAINER   SEN 62 1:19:26 711
101 LAFORGE PASCAL LDLV VET 26 1:19:28 728
102 BECKERS GUY RCT VET 27 1:19:51 36
103 DE GOLS DIRK SP AALST SEN 63 1:19:56 216
104 MEERT FRANK ACKO SEN 64 1:20:00 497
105 ERTZINGER J-PIERRE   VET 28 1:20:01 296
106 LAGRENET CEDRIC J-BEERSEL JUN 1 1:20:04 571
107 CROTTEUX J-LUC HTT VE2 9 1:20:06 720
108 DOHMEN ERIC LDLV SEN 65 1:20:10 285
109 VAN HECKE PATRICK SP AALST SEN 66 1:20:13 228
110 VAN VAERENBERGH OMER LIEKERK JO VET 29 1:20:14 271
111 VIGNERONT PAUL HTT VET 30 1:20:19 724
112 POULIN JOEL   VE2 10 1:20:21 1427
113 VANDERBECKEN SEBASTI   SEN 67 1:20:23 735
114 VERHELLE MARC   VET 31 1:20:23 371
115 MATERNE DANIEL   VE2 11 1:20:25 636
116 LEJEUNE LAURENT W STAR SEN 68 1:20:31 758
117 DEWACHTER LUC BOCCALINO VET 32 1:20:34 300
118 QUINET BERNARD FLEURUS VET 33 1:20:40 38
119 LEYERS FRANCOIS ATLAS COPC VE2 12 1:20:45 1391
120 PINDEVILLE CHRISTIAN   VE2 13 1:20:48 679
121 VAN HAUWERMETREM PAU SPIRIDON VET 34 1:20:49 583
122 LUTS DANIEL SP AALST VET 35 1:20:51 227
123 DELFOSSE BERNARD RCB VET 36 1:20:54 1397
124 BRABANT ROBERT HAC VE3 1 1:20:55 1281
125 BRUYLANT MARC SP AALST VET 37 1:20:56 220
126 VANDEPERRE MARCM65 EXCELSIOR SEN 69 1:20:57 529
127 VALDERRAMA JUAN   VET 38 1:20:57 367
128 LIESENS BERNARD   ESP 2 1:20:59 33
129 VANPEE ALAIN RONVAU VE2 14 1:20:59 1356
130 BEFFORT MARC KURISTO SEN 70 1:21:09 1201
131 PUTTEMAN PAUL SP AALST VE2 15 1:21:11 217
132 PIJCK LUCIEN TRAINING7 VE3 2 1:21:12 520
133 SERCU FILIEP AB MARKE SEN 71 1:21:19 631
134 COLLOT JOSEPH ANTILOB SEN 72 1:21:21 411
135 VAN BROEK LOUIS   VE2 16 1:21:22 397
136 ROGGEMAN KOEN   VET 39 1:21:22 398
137 FINE PAUL RCB VET 40 1:21:24 1423
138 LENNESS PIERRE SPRIMONT VET 41 1:21:30 1262
139 VAN OOST PAUL RONVAU VET 42 1:21:32 1357
140 NUYTTENS JAN   VET 43 1:21:37 1308
141 FOUCART DIDIER RACING BXL SEN 73 1:21:38 265
142 PIERRE LIONEL LDLV SEN 74 1:21:39 376
143 BRANCH ANN RCB DAM 3 1:21:44 661
144 CREFCOEUR PHILIPPE RCB SEN 75 1:21:45 434
145 GACOMS KAREL SABOTEUR VET 44 1:21:48 447
146 POELS JOSEPH FORTIS VET 45 1:21:53 650
147 FALQUE PIERRE JOGGING + SEN 76 1:21:53 1301
148 HAYES MATT   SEN 77 1:21:59 655
149 HENRY ANDRE TENDONS D VET 46 1:22:01 1235
150 RANDAXHE FRANCIS RFCL VET 47 1:22:03 1459
151 DEWALS PHILIPPE FURA SEN 78 1:22:04 418
152 DE SCHRIJVER ROMAIN SP AALST VE2 17 1:22:05 219
153 MATTHYS RUDY MTT SEN 79 1:22:19 861
154 ROBERTI DE W MAX JC RONCAU VET 48 1:22:27 1274
155       2 1:22:30 2000
156 VANDENMEERSC ARNOLD FORTIS VE2 18 1:22:35 315
157 DEVILLE CHRISTOPHE ACLE SEN 80 1:22:48 716
158 MICHIELS WIM PEGASUS T SEN 81 1:22:50 207
159 CANIVET ROLAND BOUFFIOLS VE2 19 1:22:58 1278
160 GIULIANO FERNANDO BOUFFIOLS VET 49 1:22:58 1456
161 GIJS BRUNO   VET 50 1:23:18 1421
162 VAN OSSELT THIERRY   SEN 82 1:23:30 811
163 ROUZEEUW XAVIER   ESP 3 1:23:34 1471
164 HOUTMAN DANNY LIEKERK SEN 83 1:23:39 274
165 DECNOP JEAN LUC LWA VET 51 1:23:45 1439
166 FALLET GILLES   VET 52 1:23:50 140
167 ROSZEK BORIS BAV SEN 84 1:23:50 489
168 VAN MELKEBEKE GEORGE BJB VE2 20 1:23:50 698
169 DEMEUNIER PASCAL FORTIS VET 53 1:23:51 292
170 SOEFFERS SERGE SWIFT SEN 85 1:23:59 1331
171 GOOVAERTS HERMAN AC DUFFEL VET 54 1:24:03 701
172 VAN LANDUYT J-YVES MOHA SEN 86 1:24:06 1344
173 D'HERDE MARC NAC SEN 87 1:24:09 252
174 HEYMANS THIERRY SWIFT SEN 88 1:24:13 1206
175 CASTELAIN J-LUC BONREPOS SEN 89 1:24:13 1351
176 ROZENBERG SANDRINE BIN DAM 4 1:24:18 243
177 DE SAEGER PIERRE ATLAS COPC VET 55 1:24:18 468
178 THESEUS JOS AK GRIM VET 56 1:24:19 689
179 GRENSON FREDDY   VET 57 1:24:25 1245
180 SLADDEN PIERRE COSTARDS VET 58 1:24:26 629
181 WEYS GUIDO WRB VE2 21 1:24:35 138
182 LALLEMAND LUC WINTERTHUR VET 59 1:24:36 299
183 SLADDEN J-LUC COSTARD VET 60 1:24:40 708
184 DURITA JANIKA ACLE DAM 5 1:24:52 718
185 MAQUET CECILE TCDS DAM 6 1:24:52 353
186 DA CRUZ JEAN JOGGING + VET 61 1:24:54 298
187 FAUWELS PATRICK LIEKERK SEN 90 1:24:58 273
188 GHYS OLIVIER JOGGANS SCO 1 1:24:59 388
189 MICHIELS DIRK SP AALST VET 62 1:25:00 223
190 MAIGNAN REGIS RCB SEN 91 1:25:01 563
191 DENIS VINCENT SWIFT SEN 92 1:25:08 1208
192 VERMEULEN KRIS GRIMB SEN 93 1:25:09 178
193 NELISSEN BRUNO   VE2 22 1:25:24 139
194 MUYLAERT KAREL SP AALST VET 63 1:25:25 221
195 BUYTAERT SEBASTIEN ACLE SEN 94 1:25:30 714
196 VANDELEENE PHILIPPE   VET 64 1:25:31 1227
197 PERMEEL BART   VET 65 1:25:36 567
198 DE CONINCK HANS ACP VE2 23 1:25:36 812
199 LELOUX DOMINIQUE   VET 66 1:25:37 72
200 CADO PAUL   VET 67 1:25:40 75
201 VERSTRAETE ALAIN IXEL VET 68 1:25:42 1282
202       3 1:25:43 2000
203 HOUTHUYS GUY JOGGPEULIS VET 69 1:25:48 1286
204 RAHN OLIVIER BIN SEN 95 1:25:51 475
205 REINARTZ WILFRIED LACE VET 70 1:25:51 1267
206 SOL RUDI JOGGPEULIS SEN 96 1:25:52 241
207 VOLL GUNTER LG MUTZENI VET 71 1:25:52 1309
208 BATISTIC PATRICK RONVAU SEN 97 1:25:53 422
209 GRIGNARD SEBASTIEN   SEN 98 1:25:55 841
210 VAN DE WALLE MARC JC OOSTERZ VET 72 1:26:13 1224
211 MOREAU RENE BIN VET 73 1:26:15 1211
212 VANDEN EYNDE PHILIBE   VET 74 1:26:17 498
213 MUNOZ TORRES JUAN   VET 75 1:26:24 73
214 POPPE JOHAN BNRC VET 76 1:26:28 396
215 FERKET MARC WALO VET 77 1:26:31 381
216 FRIERES CHRISTIAN   SEN 99 1:26:36 88
217 BERGMANS GUIDO TORTUES ME VET 78 1:26:38 1313
218 DAMBLON REGINE BJB AI1 2 1:26:42 611
219 LEBEAU FERNAND AXA RB VE2 24 1:26:42 1337
220 WUYTS ALBERT LDLV VET 79 1:26:48 834
221 HOORENS JOSE   SEN 100 1:26:48 249
222 ABRASSART CHRISTIAN BIN SEN 101 1:26:58 28
223 DE WITTE CHRISTIAN   VET 80 1:27:04 849
224 HOSTE MARC RCB SEN 102 1:27:10 86
225 VAN VARENDERGH FRANK LIEKERK VET 81 1:27:11 270
226 VAN SCHEL COR GRIM VE2 25 1:27:14 199
227 DE BRUYN PATRICK GRIMBERGEN SEN 103 1:27:14 43
228 FROIK CHRISTIAN   SEN 104 1:27:19 6
229 MAILLET PIERRE RCB VET 82 1:27:20 537
230 FIEVET JOEL   SEN 105 1:27:21 830
231 FERAILLE DANIELLE KURISTO AI1 3 1:27:21 301
232 MAMMERICKX FRANCIS KURISTO VE2 26 1:27:21 9
233 THYS PAUL ATLAS COPC VET 83 1:27:28 474
234 DEGAILLIER J-PIERRE   VE2 27 1:27:30 1300
235 JANSSENS J-MARIE AXA RB VET 84 1:27:36 1333
236 TREMOLET DAMIEN   SEN 106 1:27:41 116
237 MUYTENS RENE ANTILOB VE2 28 1:27:45 1376
238 DEVOREST YANN   VET 85 1:27:50 423
239 PARTON HUGO   VE2 29 1:27:50 113
240 SAUVAGE CLAUDE FORTIS VE2 30 1:27:51 288
241 DE FALLEUR YVES   SEN 107 1:27:51 738
242 VERSTAPPEN KAREL DE POST VE2 31 1:27:56 1261
243 IMBRECHTS CHRISTIAN ASUB VET 86 1:27:57 32
244 MARCELIS JEAN LOUIS SP AALST VE2 32 1:28:02 222
245 VAN LANCKER FREDDY SP AALST VE2 33 1:28:02 218
246 VERHEYDEN ANDRE JOGGPEULIS VET 87 1:28:13 1289
247 GHYS DANIEL JOGGANS VET 88 1:28:20 1361
248 DE THIBAULT THIERRY FORESTIERE SEN 108 1:28:24 30
249 DEYOOGT LISETTE ABAN AI2 1 1:28:24 552
250 DE FEYTER MARC LIEKERK VE2 34 1:28:30 1426
251 DUBOIS THIERRY   VE2 35 1:28:32 591
252 DEUX STEPHANE   SEN 109 1:28:33 719
253 BONFITTO PASUALLINO IXEL VE3 3 1:28:34 421
254 BADART MARC SPT WAVRE VET 89 1:28:38 1450
255 ARAS GERARD JOGGANS SEN 110 1:28:42 130
256 DE HERTOG DANIEL GRIMBERGEN VET 90 1:28:46 1445
257       4 1:28:46 844
258 DE BACKER FONS GRIM VET 91 1:28:47 1241
259 LAHAYE GILBERT JOGGANS VET 92 1:28:47 129
260 WACHTER JOHANNES   VET 93 1:28:57 1232
261 DE WILDE STAF LIEKERK VE2 36 1:28:59 276
262 MAGE ALAIN   VET 94 1:28:59 10
263 BERGES DIRK ATLAS COPC VE2 37 1:29:02 469
264 TILKIN DOMINIQUE   SEN 111 1:29:04 845
265 VAN KOLEN JOEL KURISTO SEN 112 1:29:07 64
266       5 1:29:08 114
267 LEDUC J-PIERRE ACKO VE2 38 1:29:14 356
268 CARLIER DIACK   SEN 113 1:29:14 358
269 DEUSE PASCAL SPT WAVRE ESP 4 1:29:16 632
270   RCT   6 1:29:22 37
271 COLLYN HANS   VET 95 1:29:23 609
272 LEMONNIER THIERRY LA MULE SEN 114 1:29:28 1432
273 MONTURIER SERGE CPMV VE2 39 1:29:30 1251
274 BOVIJN ALEX LIEKERK VET 96 1:29:31 278
275 SANGLIER PATRICK LDLV SEN 115 1:29:44 450
276 BAUWENS DANIELLE DCLA AI1 4 1:29:48 60
277 BINKERT MARC LDLV SEN 116 1:29:48 284
278 BERGIE JULIEN ATLAS COPC VE3 4 1:29:49 471
279 VAN DER AUWERA FLOR JOGGPEULIS VET 97 1:29:51 1288
280 FISTON PIERRE ESM SEN 117 1:29:52 676
281 VILLANI UMBERTO   VE2 40 1:29:52 675
282 BINKERT MARC   SEN 118 1:29:57 623
283 HERNOU MARC   VET 98 1:29:59 553
284 MOORTGAT F   SEN 119 1:30:00 853
285 DECHANET CLAUDY HTT VET 99 1:30:03 723
286 FLAMENT EDDY HAC SEN 120 1:30:04 1466
287 RUELLE ERIC   VET 100 1:30:08 1299
288 SYMENS BENOIT SPTW SEN 121 1:30:16 664
289 PICOTTE JOSE FLEURUS VET 101 1:30:19 1352
290 BALDAN WALTER RCB GAL VET 102 1:30:21 261
291 LEUS STEFAN   SEN 122 1:30:21 1212
292 BOES RONNY   VET 103 1:30:24 1247
293 MEYNCKENS RONNY DEMARSIN VET 104 1:30:24 1271
294 LAHAYE PHILIPPE   SEN 123 1:30:25 772
295 BEECKMAN HUGUES SWIFT SEN 124 1:30:31 1325
296 GIGOT ERIC LDLV SEN 125 1:30:33 312
297 VERBOOMEN J-LOUIS   SEN 126 1:30:34 727
298 LEJEUNE PATRICIA CSF DAM 7 1:30:35 776
299 RADELET EUGENE CSE VE2 41 1:30:36 340
300 STATSYNS J-FRANCOIS   SEN 127 1:30:47 678
301 CAUCHIE MARC   VE2 42 1:30:47 713
302 WAUQUIEZ WILLIAM RACING SEN 128 1:30:51 392
303 BERTRAND MARIE JEANN JOGGANS AI1 5 1:30:58 141
304 DUBOIS GERARD JOGGANS VE3 5 1:30:58 142
305 DEVROYE ANDRE FORTIS VET 105 1:30:59 26
306 ROMBAUX EDDY PEGASUS T SEN 129 1:31:05 209
307 VULLO GUISEPPE   VET 106 1:31:10 666
308 MALIGO ROBERT   VE2 43 1:31:17 332
309 LUYPAERT ARMAND GRIM VE2 44 1:31:21 1219
310 POOT STEPHANE JOGGANS VE2 45 1:31:23 390
311 LEROUX J-PIERRE JOGGANS VE2 46 1:31:23 1365
312 DUFOURNY MYRIAM BOA AI1 6 1:31:25 308
313 DUFOURNY SERGE BOA VET 107 1:31:26 309
314 REYNIERS JOHAN   VET 108 1:31:26 1452
315 VERSTRAELEN STAN PEGASUS VET 109 1:31:28 603
316 HAUTMAN RUDY ROADJOGGER VET 110 1:31:30 329
317 BOUCART DANIEL LWA VET 111 1:31:39 1461
318 RUDEMALM BO LWA VET 112 1:31:39 62
319 GILLARD CORINNE LDLV AI1 7 1:31:41 1305
320 DERHE CHRISTINE SPT WAVRE AI1 8 1:31:43 1438
321 VANDEVELDE WILLIAM   SEN 130 1:31:44 638
322 VAREWYCK PIERRE ANTILOB VE3 6 1:31:47 78
323 CAMELBEKE MARYKE   AI1 9 1:31:50 1307
324 GAUTIER PATRICK   SEN 131 1:31:53 1256
325 SIMON J-FRANCOIS   VET 113 1:31:55 729
326 BILTEREST MICHEL FURALOPERS VET 114 1:31:57 726
327 DE SAEDELEER IVAN ASSA SEN 132 1:32:00 873
328 MOES ALAIN RCB SEN 133 1:32:00 184
329 VANHAEKENDOUER J-FRA ANTILOB VET 115 1:32:02 575
330 PANS CLEMENT SPT WAVRE VET 116 1:32:03 325
331 DE WETTINCK JURGEN JC OOSTERZ SEN 134 1:32:06 55
332 MARIE STEPHANE   SEN 135 1:32:07 368
333 THIELEMANS RENE FURA VET 117 1:32:08 600
334 NIJSEN JOZEF   SEN 136 1:32:11 169
335 CASTERMAN SERGE ANTILOB VE2 47 1:32:12 1373
336 WAEGEMAN MARC ATLAS COPC VET 118 1:32:15 473
337 REINARTZ VERA LACE AI1 10 1:32:16 1266
338 WATTEEUW PIERRE   VE2 48 1:32:16 246
339 WATTEEUW CHRISTIANE RONVAU AI2 2 1:32:16 1291
340 HEYNDRICKX JAN   SEN 137 1:32:37 1443
341 DEFALQUE ALBAN ANTILOB SEN 138 1:32:40 409
342 ZYLBERBERG LUC JOGGANS VET 119 1:32:41 1350
343 CAWET JEAN PIERRE JOGGANS VET 120 1:32:41 1410
344 AERTS HENRI KIMBRIA VET 121 1:32:44 1449
345 MALICE PHILIPPE ADJ SEN 139 1:32:46 748
346 DESCY FRANCOIS ACRO VET 122 1:32:49 749
347 PASCAL MURIELLE ASTUB DAM 8 1:32:56 483
348       7 1:32:56 2000
349 PLOYAERT ERIC WALCOURT VET 123 1:33:02 1233
350 DEPAUW SERGE WALCOURT VET 124 1:33:02 1430
351 BOGAERTS ROGER JOGGPEULIS VE2 49 1:33:04 240
352 CEULENAERE PAUL   SEN 140 1:33:12 104
353       8 1:33:25 2000
354 BOSMANS PETER   SEN 141 1:33:26 771
355 OPDEBEECK WILLY JOGGANS VE3 7 1:33:29 1369
356 DUPUIS DOMINIQUE SWIFT SEN 142 1:33:36 1328
357 DE ROP PHILIPPE   SEN 143 1:33:36 773
358 DOGOT BERNARD ADJ VET 125 1:33:39 750
359 VANNOORBEECK XAVIER RAPHSPORT VET 126 1:33:44 512
360 VAN ROY LEO   SEN 144 1:33:47 49
361 KOLP CHRISTIAN   VET 127 1:33:49 1239
362 VAN-LAER MARTIN LIEKERK VET 128 1:33:52 272
363 GERMAUX WILLY JOGGING + VE3 8 1:33:53 1264
364 JACQUET JAN   SEN 145 1:33:54 831
365 RYCKEBOER RIK   VET 129 1:33:57 643
366 VAN DEN BOSSCHE MICH   DAM 9 1:33:58 642
367 DE MAEYER DAVID NUCLEA SEN 146 1:34:06 605
368 CORTI SERGIO CAS VE2 50 1:34:11 1411
369 LELOUP STEPHAN   VET 130 1:34:16 1284
370 GENIN MARYLENE RONVAU DAM 10 1:34:17 1354
371 MERCKX KAREL SPBO VET 131 1:34:33 810
372 NACHTEGAELE REGINE   DAM 11 1:34:42 864
373 LAENENS FRANCIS AXA RB VET 132 1:34:45 1335
374       9 1:34:48 2000
375 COSSYNS CHRISTOPHE   SEN 147 1:34:49 1428
376 DENIS MARCEL RONVAU SEN 148 1:34:50 1353
377 VERCRUSSE VINCENT ASTUB SEN 149 1:34:53 485
378 JANSSENS THIERRY ASTUB SEN 150 1:34:53 482
379 BLANPAIN JOHANN RONVAU VET 133 1:34:54 40
380 FLAMAND ROLAND ANTILOB VET 134 1:35:01 1371
381 RAMOS JEAN MARC ANTILOB VE2 51 1:35:02 410
382 GILSON PHILIPPE   VET 135 1:35:14 127
383 COLMANT DAMIEN   SEN 151 1:35:18 1408
384 VAN LIERDE DANIEL   VE2 52 1:35:30 649
385 DE LEEUW PHILIPPE ACLU VET 136 1:35:31 564
386 VALET ANDRE   SEN 152 1:35:31 63
387 VERLAINE NICOLAS RCB VET 137 1:35:39 354
388 BRANKART PIERRE AG VET 138 1:35:43 488
389 BENNE JEAN LOUIS   VET 139 1:35:45 1234
390 JAMMAERS CHRISTIAN FORTIS VET 140 1:35:47 181
391 MARCHANT YVES MARIE   VET 141 1:35:57 1395
392 DE WAEL KOEN ROADJOGGER SEN 153 1:36:04 745
393 HAESAERT STEPHANE GRIM SEN 154 1:36:05 193
394 DOMAZETIS CHRISTOS   SEN 155 1:36:06 687
395 HAELTERMAN SONIA   DAM 12 1:36:09 823
396 VAN POPERING EMILE KAPUC VET 142 1:36:18 1244
397 DE VRIESE MARC US SEN 156 1:36:22 597
398 DASSY HENRI ANTILOB VET 143 1:36:24 1372
399 PAVOT MICHEL   VE2 53 1:36:30 1225
400 RIGAU CHRISTIAN ANTILOB VET 144 1:36:33 406
401 BOUDART JEAN PAUL   VET 145 1:36:34 503
402 RAMOS VICTOR LEGRAND VET 146 1:36:35 516
403 DE MOOR PAUL ENJAMBEE VE2 54 1:36:38 1381
404 VANNIEUWENHOVEN ARTH   VE3 9 1:36:39 641
405 THIRD IAN   SEN 157 1:36:45 524
406 BERDOUX   VE2 55 1:36:46 1436
407 RENOIR CLAUDINE   AI1 11 1:36:48 158
408 DE BAERDEMAEKER ERIK   VET 147 1:36:49 1310
409 OLLIER BEATRICE JOGGANS AI2 3 1:36:51 1360
410 LIENARD JEAN LUC   VET 148 1:36:53 132
411 RIGOT SERGE RCB VE2 56 1:37:01 1383
412 HENNERESSE ISABELLE JCCS DAM 13 1:37:06 1363
413 LAMONTAGNE JACQUES   VET 149 1:37:06 350
414 LIEGEOIS J-LOUIS   VET 150 1:37:07 1424
415 GODEFRIDI THIERRY   VET 151 1:37:10 1279
416 HUYSEGOMS BART GRIM SEN 158 1:37:15 197
417 WAUCAMPS REGIE ANTILOB VET 152 1:37:25 1374
418 BOHY RONNY CS DYLE VE2 57 1:37:27 112
419 MEESTERS ANDRE   SEN 159 1:37:29 694
420 GOFFIN GERALD JOGGING + SEN 160 1:37:37 1231
421 HOUILLET J-LOUIS SPT WAVRE SEN 161 1:37:54 707
422 HANCART PIERRE ABILIS VET 153 1:38:02 1355
423 CORTVRINT MICHEL   VET 154 1:38:05 533
424 THOMAS LOUIS FORD BOYS VE2 58 1:38:05 100
425 TARLET DANIEL   VET 155 1:38:07 762
426 MARTENS KOEN   SEN 162 1:38:10 747
427 DE BURCHGRAEVEN IVAN   SEN 163 1:38:13 334
428 LERIAS ANTONIO   VET 156 1:38:25 1402
429 RAEVENS JEAN PIERRE ATLAS COPC VE2 59 1:38:26 467
430 WERY PIERRE SWIFT VET 157 1:38:27 1332
431 COURBET MICHEL RAPHSPORT VET 158 1:38:35 511
432 DOUXCHARDS FRANCOIS MSF VE2 60 1:38:37 433
433 VAN CAUTER PAUL FORD BOYS VET 159 1:38:40 98
434 VERHELLEN THIERRY KAPUCIJN VET 160 1:38:42 1214
435 PENNINGK DOMINIQUE KURISTO VET 161 1:38:45 1469
436 VAN BOVEN STEPHAAN ROADJOGGER VET 162 1:38:54 746
437 DE RAEDT WILLY ROADJOGGER SEN 164 1:38:55 744
438 PODEVIJN J-PAUL ROAD JOG VET 163 1:38:56 351
439 JACOB LEON HTT VET 164 1:38:59 722
440 DEMUYNCK MICHEL HTT VET 165 1:38:59 803
441 DALEBROUX VINCENT ARCH SEN 165 1:39:12 633
442 SUMMA FRANCO LEGRAND VET 166 1:39:13 517
443 DERDEYN STEFAN   VET 167 1:39:14 1252
444 COTROUX PASCAL 4 SAISONS SEN 166 1:39:17 76
445 DEWILDE BERNARD ARTESIA VET 168 1:39:23 706
446 CORNELIS TONY MMC VET 169 1:39:24 1258
447 LAES WALTER BRRC VET 170 1:39:26 393
448 JONCKHEERE BENOIT   VET 171 1:39:29 585
449 LIZEN EDDY JOGGING + VET 172 1:39:32 1249
450 LIZEN ERIC JOGGING + VET 173 1:39:32 1248
451 VANNIEUWERHE MARTINE ANTILOB AI1 12 1:39:36 412
452 FAURE LISA LDLV AI1 13 1:39:38 451
453 LAUWERS MARC   VET 174 1:39:39 777
454 PLUMET CARINE LDLV DAM 14 1:39:41 1298
455 MATTELAER IRENE LDLV AI1 14 1:39:41 449
456 RODER PATRICK LDLV VET 175 1:39:42 1297
457 MARECHAL J   VE2 61 1:39:47 866
458 DE KERPEL ALAIN RC NAMUR VET 176 1:39:53 1441
459 CLOSSET FABRICE RC NAMUR SEN 167 1:39:53 1269
460 JACKSON BRIAN   VET 177 1:39:56 559
461 LE ROUX PIERRE   VET 178 1:40:06 119
462 BANDIN MARC   VET 179 1:40:07 1257
463 ISELLA MARCO GRIM SEN 168 1:40:17 183
464 MARCHAL DENIS   SEN 169 1:40:23 843
465 LELOUP DANIEL AXA RB VE2 62 1:40:33 1340
466 SALENS LIA OLYMPIA DAM 15 1:40:40 594
467 LANDERCY DANIEL HAC VET 180 1:40:42 1467
468 SAUVAGE ANDRE FORTIS VE2 63 1:40:47 289
469 GEORGES FRANCOIS   VET 181 1:40:51 1463
470 JACKSON KIM   SCF 1 1:40:51 560
471 DURANT MICHEL RONVAU VE2 64 1:40:56 1398
472 COLLA PAUL MMC VE2 65 1:41:11 352
473 PIRSON PATRICE JOGGANS VET 182 1:41:18 1364
474 PARMENTIER CHRISTIAN FORTIS VET 183 1:41:43 21
475 DECROLY MONIQUE FORTIS DAM 16 1:41:43 20
476 VERMEIREE RICHARD BIN VE2 66 1:41:51 205
477 KREWSON FREDERICK   VET 184 1:41:56 46
478 JORIS SEBASTIEN   SEN 170 1:42:08 1265
479 DUCARME OLIVIER   SEN 171 1:42:37 490
480 SABLON ROLAND AXA RB SEN 172 1:42:38 1338
481 BLUMENTAL ALBERT   VE2 67 1:42:42 1218
482 MARIEN GEERT   SEN 173 1:42:58 191
483 CORNELIS HARRY MMC VET 185 1:43:32 1228
484 DEBEKKER MMC VE2 68 1:43:33 733
485 GEUSKENS GEORGES   VE3 10 1:43:36 1388
486 JAMAR LUC   SEN 174 1:43:42 704
487 CLEMENT JACQUES   VET 186 1:43:44 1272
488 PECHENART ALAIN LE ZOUAVE VE2 69 1:43:46 627
489 LORENT HUBERT BJB VE3 11 1:43:49 557
490 LUMEN J-LOUIS HAC VET 187 1:44:04 1465
491 SMETS CLAUDE SPORT MSF VE3 12 1:44:08 1243
492 CATALANO FRANCESCO   SEN 175 1:44:08 686
493 DI STESANO DOMINIQUE   VET 188 1:44:09 1394
494 RAVET ANDRE   VE2 70 1:44:32 507
495 MEVRANT DENIS   SEN 176 1:45:09 336
496 MEVRANT ETIENNE   SEN 177 1:45:09 370
497 VERHAEGHE LEON ARTESIA VE2 71 1:45:25 741
498 LEVY DOMINIQUE KURISTO VE2 72 1:45:30 1226
499 BIZEUL JEROME   ESP 5 1:45:31 117
500 PINTON ENIO ANTILOB VET 189 1:46:03 408
501 MANFROID POL JOGGANS VE2 73 1:46:11 179
502 JANSSENS PAUL SWIFT VET 190 1:46:28 1205
503 THOME PATRICE   VET 191 1:46:28 342
504 DUBOIS MARC   SEN 178 1:46:57 705
505 MARTINI ROMANO   VE3 13 1:47:06 1342
506 DEGRAVE ETIENNE 4 BRAS VET 192 1:47:31 538
507 D'HAEYERE JACQUES SPT WAVRE VE2 74 1:47:33 1302
508 VAN HECKE ACHIEL   VE3 14 1:47:37 431
509 MERTENS PATRICIA   DAM 17 1:47:49 805
510 LEBLOND PHILIPPE HAC SEN 179 1:47:50 651
511 DELANDER MICHEL SPT SEN 180 1:47:57 730
512 ETIENNE CHRISTIAN RC NAMUR VET 193 1:48:05 1296
513 DENDOOVEN JAN GRIM SEN 181 1:48:09 196
514 HOEDEMAEKERS PATRICK GRIM VET 194 1:48:10 192
515 LYKE BERNARD   SEN 182 1:49:32 51
516 LYKE LISA   DAM 18 1:49:33 50
517 SIMONS BENOIT ANPCV VE2 75 1:49:37 814
518 VAN HOUTTE GABRIEL BIN VE2 76 1:49:52 510
519 PIQUARD BENOIT   SEN 183 1:49:57 574
520 BRIALMOWT MARIE   DAM 19 1:50:33 343
521 SAURE JOGGING + VE2 77 1:50:48 763
522 CARVAILLO ALAIN C.S.DYLE VET 195 1:50:58 295
523 ROSEAU MARIE HELENE   AI1 15 1:50:59 56
524 LE ROUX CAROLINE   AI1 16 1:51:09 118
525 VANDERBIEST PAUL OVERIJSE VE2 78 1:51:22 548
526 GAETHOES J-PIERRE AZ ZOTTEGE VE3 15 1:51:51 267
527 JASSOGNE ANDRE STIB VE3 16 1:52:02 8
528 KINET JACQUES LDLV VET 196 1:52:05 759
529 GOFFINET MICHAEL LDLV SEN 184 1:52:05 279
530 MERENS MARC LEBREKE SEN 185 1:52:09 587
531 SCHELFHOUT ANNIE JOGGANS AI2 4 1:52:14 391
532 VAN DEN EEDE MAURICE   VE2 79 1:52:15 105
533 PERPETE PHILIPPE RC NAMUR SEN 186 1:52:18 1453
534 HEIRMAN PAUL   VE3 17 1:52:29 57
535 VAN HECKE ALAIN FORTIS VE2 80 1:52:31 1238
536 WILMET MARIE FRANCE HBT AI1 17 1:52:39 766
537 COOLBRANDT LIEVE ROADJOGGER AI1 18 1:52:56 328
538 ROUYER JACKY BOA VE3 18 1:53:01 634
539 GUILLAUME MICHEL ST JACQUES SEN 187 1:53:18 577
540 SEGHERS RITA   AI2 5 1:53:34 1346
541 SCHOEPS IVAN   VE3 19 1:53:52 1253
542 MEEUWIS MARTINE RCB AI1 19 1:53:57 87
543 VAN RENTERGHEM ROGER FORTIS C VE2 81 1:53:59 39
544 LEONARD MICHELLE JOGGANS AI2 6 1:54:20 1368
545 VERHAEGHE JAN GRIM VET 197 1:54:43 194
546 STEENPUT LUC   VET 198 1:54:52 1420
547 DE BOCK JOHN   VE2 82 1:55:40 1345
548 PAIRON RENE   VE3 20 1:55:55 536
549 BERTRAND ANDRE   VE2 83 1:57:30 1341
550 STROUWEN RODRIGUE   ESP 6 1:57:31 162
551 BERAND SYLVIE   AI1 20 1:57:46 34
552 GRAUX CHRISTIAN   VET 199 1:57:47 35
553 GILLET AURORE   DAM 20 1:59:53 346
554 DE BLIECK PHILIPPE   VET 200 2:00:12 1409
555 CERINI CARLA ESM PRONU DAM 21 2:00:52 97
556 VANDEWEYER ERIK WETTEREN SEN 188 2:01:33 1210
557 COPPE STEPHANE   VET 201 2:03:45 1403
558 MURILLO AUGUSTO   VE2 84 2:04:24 734
559 MOTTARD NICOLAS   SEN 189 2:04:58 165
560 VELLA GIUSEPPE   VE2 85 2:06:12 366
561 HASH VICTORIA   JUF 1 2:06:59 555
562 PALUMBO GRAZIELLA ACLO DAM 22 2:07:15 586
563 PANEPINTO VALERIE ACLO DAM 23 2:07:16 663
564 BORREMANS J-PAUL FORTIS VET 202 2:07:29 290
565 ANTHONY HYO   VET 203 2:11:28 556
566 COLLET GEORGES   VE2 86 2:11:55 617
567 CHAVEZ OLIVIA   SCF 2 2:15:13 554
568 LOEFFLER MARIE-CLAIR   AI1 21 2:37:03 1422
569 MARRACHINI LORENZO   VE3 21 2:47:11 1343


Last Updated on 6/02/00
By Serge Rigot
Email: SeRigot@ibelgique.com